MAS209 VAAH-WMKK

Flight info

Callsign MAS209
Flight time 6h 21m
Altitude 37000
Route BODAR1A BODAR N895 NNP N877 AGEGA/N0457F390 L510 GIVAL P628 VPL Y503 RINBA Y507 KAKAK KAKAK1J
Aircraft B38M/M-SDE1FGHILORVWXY/HB1

Departure

Time 2026-04-23 15:04
Airport Sardar Vallabh Patel International Airport (VAAH)

Arrival

Time 2026-04-23 21:25
Airport Kuala Lumpur International Airport (WMKK)
Time Latitude Longitude Altitude Speed Heading
2026-04-23 14:42 23.07424 72.62508 188 ft 0 kts 316°
2026-04-23 14:52 23.07411 72.62521 199 ft 4 kts 321°
2026-04-23 14:53 23.07389 72.62538 191 ft 4 kts 333°
2026-04-23 14:53 23.07365 72.62546 197 ft 4 kts
2026-04-23 14:53 23.07350 72.62539 196 ft 0 kts 46°
2026-04-23 14:57 23.07354 72.62544 196 ft 3 kts 46°
2026-04-23 14:57 23.07385 72.62580 194 ft 11 kts 46°
2026-04-23 14:57 23.07457 72.62663 188 ft 20 kts 46°
2026-04-23 14:57 23.07537 72.62757 191 ft 9 kts 68°
2026-04-23 14:58 23.07507 72.62819 197 ft 13 kts 136°
2026-04-23 14:58 23.07478 72.62934 204 ft 17 kts 59°
2026-04-23 14:58 23.07577 72.63038 202 ft 24 kts 44°
2026-04-23 14:58 23.07706 72.63174 200 ft 27 kts 44°
2026-04-23 14:59 23.07849 72.63326 196 ft 27 kts 44°
2026-04-23 14:59 23.07875 72.63417 201 ft 7 kts 131°
2026-04-23 14:59 23.07873 72.63420 199 ft 0 kts 127°
2026-04-23 15:01 23.07866 72.63430 206 ft 4 kts 127°
2026-04-23 15:01 23.07839 72.63466 196 ft 9 kts 129°
2026-04-23 15:01 23.07820 72.63540 196 ft 14 kts 63°
2026-04-23 15:01 23.07915 72.63653 198 ft 26 kts 45°
2026-04-23 15:02 23.08044 72.63791 202 ft 27 kts 45°
2026-04-23 15:02 23.08175 72.63931 210 ft 25 kts 44°
2026-04-23 15:02 23.08295 72.64062 203 ft 20 kts 53°
2026-04-23 15:02 23.08329 72.64121 201 ft 1 kts 345°
2026-04-23 15:03 23.08330 72.64116 200 ft 1 kts 285°
2026-04-23 15:03 23.08310 72.64073 202 ft 13 kts 224°
2026-04-23 15:03 23.08177 72.63932 210 ft 55 kts 224°
2026-04-23 15:03 23.07724 72.63448 205 ft 127 kts 224°
2026-04-23 15:04 23.06947 72.62616 298 ft 177 kts 224°
2026-04-23 15:04 23.06055 72.61656 1063 ft 173 kts 227°
2026-04-23 15:04 23.05184 72.60712 1333 ft 189 kts 228°
2026-04-23 15:04 23.03991 72.59898 1754 ft 219 kts 192°
2026-04-23 15:05 23.02472 72.60179 2523 ft 233 kts 148°
2026-04-23 15:05 23.01281 72.61463 3065 ft 254 kts 131°
2026-04-23 15:05 23.00036 72.62942 2999 ft 273 kts 135°
2026-04-23 15:05 22.98681 72.64445 3003 ft 281 kts 136°
2026-04-23 15:06 22.97296 72.65954 3014 ft 282 kts 136°
2026-04-23 15:06 22.95904 72.67456 3227 ft 282 kts 136°
2026-04-23 15:06 22.94540 72.68928 4373 ft 275 kts 137°
2026-04-23 15:06 22.93154 72.70416 5224 ft 286 kts 138°
2026-04-23 15:07 22.91725 72.71946 6100 ft 289 kts 138°
2026-04-23 15:07 22.90282 72.73490 6943 ft 293 kts 138°
2026-04-23 15:07 22.88820 72.75054 7724 ft 296 kts 138°
2026-04-23 15:07 22.87548 72.76838 8509 ft 306 kts 117°
2026-04-23 15:08 22.86976 72.79066 9526 ft 309 kts 102°
2026-04-23 15:08 22.86549 72.81381 10273 ft 318 kts 103°
2026-04-23 15:08 22.86100 72.83789 10774 ft 334 kts 102°
2026-04-23 15:09 22.85164 72.88926 11709 ft 362 kts 102°
2026-04-23 15:09 22.84681 72.91593 12580 ft 360 kts 101°
2026-04-23 15:09 22.84197 72.94259 13389 ft 362 kts 101°
2026-04-23 15:09 22.83709 72.96948 14052 ft 365 kts 101°
2026-04-23 15:10 22.83383 72.98741 14488 ft 366 kts 101°
2026-04-23 15:10 22.82721 73.02383 15308 ft 371 kts 101°
2026-04-23 15:10 22.82219 73.05140 15926 ft 374 kts 101°
2026-04-23 15:10 22.81714 73.07918 16535 ft 377 kts 100°
2026-04-23 15:11 22.81204 73.10718 17126 ft 380 kts 100°
2026-04-23 15:11 22.80691 73.13537 17706 ft 383 kts 100°
2026-04-23 15:11 22.80181 73.16342 18241 ft 386 kts 100°
2026-04-23 15:11 22.79659 73.19204 18730 ft 389 kts 100°
2026-04-23 15:12 22.79133 73.22084 19221 ft 391 kts 100°
2026-04-23 15:12 22.78602 73.24988 19710 ft 394 kts 100°
2026-04-23 15:12 22.78068 73.27910 20190 ft 397 kts 100°
2026-04-23 15:12 22.77530 73.30851 20684 ft 399 kts 100°
2026-04-23 15:13 22.76986 73.33817 21151 ft 403 kts 100°
2026-04-23 15:13 22.76438 73.36801 21627 ft 405 kts 100°
2026-04-23 15:13 22.75887 73.39804 22108 ft 408 kts 100°
2026-04-23 15:13 22.75331 73.42826 22564 ft 411 kts 100°
2026-04-23 15:14 22.74770 73.45874 23033 ft 413 kts 100°
2026-04-23 15:14 22.74205 73.48942 23489 ft 416 kts 100°
2026-04-23 15:14 22.73636 73.52025 23862 ft 419 kts 100°
2026-04-23 15:14 22.73063 73.55128 24254 ft 421 kts 100°
2026-04-23 15:15 22.72485 73.58254 24654 ft 424 kts 100°
2026-04-23 15:15 22.71903 73.61395 25046 ft 426 kts 100°
2026-04-23 15:15 22.71318 73.64553 25426 ft 429 kts 100°
2026-04-23 15:15 22.70730 73.67723 25808 ft 431 kts 101°
2026-04-23 15:16 22.70136 73.70920 26180 ft 434 kts 101°
2026-04-23 15:16 22.69537 73.74139 26552 ft 436 kts 101°
2026-04-23 15:16 22.68937 73.77363 26920 ft 438 kts 101°
2026-04-23 15:16 22.68340 73.80566 27271 ft 441 kts 101°
2026-04-23 15:17 22.67730 73.83833 27636 ft 443 kts 101°
2026-04-23 15:17 22.67118 73.87109 28001 ft 445 kts 101°
2026-04-23 15:17 22.66502 73.90399 28354 ft 447 kts 101°
2026-04-23 15:17 22.65882 73.93710 28696 ft 450 kts 101°
2026-04-23 15:18 22.65259 73.97036 29042 ft 452 kts 101°
2026-04-23 15:18 22.64631 74.00382 29397 ft 454 kts 101°
2026-04-23 15:18 22.64000 74.03738 29741 ft 456 kts 101°
2026-04-23 15:18 22.63366 74.07109 30034 ft 459 kts 101°
2026-04-23 15:19 22.62727 74.10500 30326 ft 461 kts 101°
2026-04-23 15:19 22.62084 74.13905 30621 ft 462 kts 101°
2026-04-23 15:19 22.61440 74.17322 30888 ft 465 kts 101°
2026-04-23 15:19 22.60790 74.20757 31169 ft 467 kts 101°
2026-04-23 15:20 22.60250 74.23007 31355 ft 468 kts 107°
2026-04-23 15:20 22.58942 74.27503 31843 ft 467 kts 107°
2026-04-23 15:20 22.57961 74.30847 32231 ft 467 kts 107°
2026-04-23 15:20 22.56976 74.34192 32607 ft 466 kts 107°
2026-04-23 15:21 22.55990 74.37533 32979 ft 466 kts 107°
2026-04-23 15:21 22.55006 74.40863 33352 ft 465 kts 107°
2026-04-23 15:21 22.54032 74.44156 33693 ft 465 kts 107°
2026-04-23 15:21 22.53047 74.47483 34024 ft 464 kts 107°
2026-04-23 15:22 22.52048 74.50853 34294 ft 465 kts 107°
2026-04-23 15:22 22.51073 74.54141 34513 ft 466 kts 108°
2026-04-23 15:22 22.50081 74.57485 34720 ft 468 kts 108°
2026-04-23 15:22 22.49086 74.60834 34975 ft 468 kts 108°
2026-04-23 15:23 22.48091 74.64184 35219 ft 468 kts 108°
2026-04-23 15:23 22.47095 74.67534 35449 ft 469 kts 108°
2026-04-23 15:23 22.46094 74.70893 35660 ft 469 kts 109°
2026-04-23 15:23 22.45094 74.74251 35862 ft 470 kts 109°
2026-04-23 15:24 22.44088 74.77622 36064 ft 471 kts 109°
2026-04-23 15:24 22.43082 74.80993 36261 ft 472 kts 109°
2026-04-23 15:24 22.42074 74.84368 36450 ft 472 kts 109°
2026-04-23 15:24 22.41063 74.87749 36635 ft 473 kts 109°
2026-04-23 15:25 22.40051 74.91131 36811 ft 474 kts 110°
2026-04-23 15:25 22.38351 74.96809 36863 ft 474 kts 110°
2026-04-23 15:26 22.35988 75.04686 36874 ft 474 kts 110°
2026-04-23 15:26 22.33953 75.11453 36871 ft 474 kts 110°
2026-04-23 15:27 22.31913 75.18227 36869 ft 474 kts 110°
2026-04-23 15:27 22.29868 75.25007 36874 ft 475 kts 110°
2026-04-23 15:28 22.27821 75.31784 36875 ft 475 kts 110°
2026-04-23 15:28 22.25769 75.38565 36881 ft 475 kts 110°
2026-04-23 15:29 22.23727 75.45301 36883 ft 476 kts 111°
2026-04-23 15:29 22.21666 75.52089 36879 ft 476 kts 111°
2026-04-23 15:30 22.19602 75.58875 36876 ft 476 kts 111°
2026-04-23 15:30 22.17530 75.65675 36875 ft 477 kts 111°
2026-04-23 15:31 22.15452 75.72485 36870 ft 478 kts 111°
2026-04-23 15:31 22.13368 75.79303 36870 ft 478 kts 111°
2026-04-23 15:32 22.11281 75.86122 36869 ft 479 kts 111°
2026-04-23 15:32 22.09543 75.91793 36871 ft 480 kts 112°
2026-04-23 15:33 22.07445 75.98624 36875 ft 480 kts 113°
2026-04-23 15:33 22.05205 76.05408 36866 ft 480 kts 113°
2026-04-23 15:34 22.02970 76.12194 36866 ft 481 kts 113°
2026-04-23 15:34 22.00728 76.19002 36865 ft 482 kts 114°
2026-04-23 15:35 21.98483 76.25801 36861 ft 482 kts 114°
2026-04-23 15:35 21.96230 76.32618 36864 ft 483 kts 114°
2026-04-23 15:36 21.93991 76.39381 36865 ft 483 kts 114°
2026-04-23 15:36 21.91727 76.46212 36859 ft 483 kts 114°
2026-04-23 15:37 21.89460 76.53037 36860 ft 484 kts 114°
2026-04-23 15:37 21.87186 76.59855 36861 ft 484 kts 114°
2026-04-23 15:38 21.84905 76.66687 36862 ft 485 kts 115°
2026-04-23 15:38 21.82621 76.73516 36859 ft 485 kts 115°
2026-04-23 15:39 21.80331 76.80352 36864 ft 486 kts 115°
2026-04-23 15:39 21.78051 76.87148 36867 ft 486 kts 115°
2026-04-23 15:40 21.75751 76.93993 36866 ft 487 kts 115°
2026-04-23 15:40 21.73444 77.00849 36865 ft 487 kts 115°
2026-04-23 15:41 21.71134 77.07704 36867 ft 488 kts 115°
2026-04-23 15:41 21.68816 77.14571 36868 ft 488 kts 115°
2026-04-23 15:42 21.66494 77.21438 36865 ft 489 kts 115°
2026-04-23 15:42 21.64165 77.28318 36878 ft 490 kts 116°
2026-04-23 15:43 21.61833 77.35198 36879 ft 490 kts 116°
2026-04-23 15:43 21.59580 77.42126 36883 ft 492 kts 115°
2026-04-23 15:44 21.57345 77.49071 36882 ft 492 kts 115°
2026-04-23 15:44 21.55114 77.55984 36873 ft 492 kts 115°
2026-04-23 15:45 21.52867 77.62934 36879 ft 493 kts 115°
2026-04-23 15:45 21.50656 77.69914 36882 ft 495 kts 114°
2026-04-23 15:46 21.48495 77.76939 36871 ft 495 kts 114°
2026-04-23 15:46 21.46324 77.83962 36869 ft 496 kts 115°
2026-04-23 15:47 21.44149 77.90985 36862 ft 496 kts 115°
2026-04-23 15:47 21.41966 77.98019 36862 ft 497 kts 115°
2026-04-23 15:48 21.39778 78.05062 36859 ft 498 kts 115°
2026-04-23 15:48 21.37597 78.12067 36854 ft 498 kts 115°
2026-04-23 15:49 21.35397 78.19122 36851 ft 499 kts 115°
2026-04-23 15:49 21.33193 78.26179 36848 ft 499 kts 115°
2026-04-23 15:50 21.30981 78.33253 36844 ft 500 kts 115°
2026-04-23 15:50 21.28763 78.40330 36842 ft 501 kts 116°
2026-04-23 15:51 21.26542 78.47410 36838 ft 501 kts 116°
2026-04-23 15:51 21.24315 78.54494 36832 ft 502 kts 116°
2026-04-23 15:52 21.22082 78.61584 36833 ft 502 kts 116°
2026-04-23 15:52 21.19845 78.68682 36831 ft 503 kts 116°
2026-04-23 15:53 21.17610 78.75779 36828 ft 503 kts 116°
2026-04-23 15:53 21.15373 78.82888 36827 ft 504 kts 116°
2026-04-23 15:54 21.13133 78.89998 36826 ft 504 kts 116°
2026-04-23 15:54 21.10887 78.97112 36828 ft 504 kts 116°
2026-04-23 15:55 21.08538 79.04156 36815 ft 494 kts 126°
2026-04-23 15:55 21.06728 79.07126 36835 ft 475 kts 139°
2026-04-23 15:55 21.04618 79.09866 36818 ft 477 kts 139°
2026-04-23 15:56 21.00340 79.15275 36820 ft 476 kts 140°
2026-04-23 15:56 20.96008 79.20626 36816 ft 475 kts 140°
2026-04-23 15:57 20.91671 79.25959 36815 ft 475 kts 140°
2026-04-23 15:57 20.87417 79.31398 36810 ft 477 kts 139°
2026-04-23 15:58 20.83170 79.36835 36796 ft 476 kts 139°
2026-04-23 15:58 20.78918 79.42268 36797 ft 476 kts 139°
2026-04-23 15:59 20.74670 79.47691 36800 ft 476 kts 139°
2026-04-23 15:59 20.70415 79.53117 36799 ft 476 kts 139°
2026-04-23 16:00 20.66190 79.58500 36799 ft 476 kts 139°
2026-04-23 16:00 20.61939 79.63911 36798 ft 476 kts 139°
2026-04-23 16:01 20.57683 79.69322 36799 ft 475 kts 139°
2026-04-23 16:01 20.53427 79.74729 36801 ft 476 kts 139°
2026-04-23 16:02 20.49165 79.80138 36800 ft 476 kts 139°
2026-04-23 16:02 20.44903 79.85543 36797 ft 476 kts 139°
2026-04-23 16:03 20.40638 79.90946 36797 ft 476 kts 139°
2026-04-23 16:03 20.36366 79.96352 36803 ft 477 kts 139°
2026-04-23 16:04 20.32090 80.01758 36801 ft 477 kts 139°
2026-04-23 16:04 20.27815 80.07159 36801 ft 476 kts 139°
2026-04-23 16:05 20.24262 80.11643 36805 ft 476 kts 139°
2026-04-23 16:05 20.19296 80.17905 36812 ft 476 kts 139°
2026-04-23 16:06 20.15021 80.23290 36809 ft 476 kts 139°
2026-04-23 16:06 20.10748 80.28667 36816 ft 476 kts 139°
2026-04-23 16:07 20.06475 80.34039 36817 ft 475 kts 139°
2026-04-23 16:07 20.02204 80.39405 36816 ft 475 kts 139°
2026-04-23 16:08 19.97924 80.44776 36816 ft 475 kts 139°
2026-04-23 16:08 19.93679 80.50098 36818 ft 475 kts 139°
2026-04-23 16:09 19.89403 80.55456 36821 ft 475 kts 139°
2026-04-23 16:09 19.85121 80.60814 36827 ft 475 kts 139°
2026-04-23 16:10 19.80842 80.66165 36836 ft 475 kts 139°
2026-04-23 16:10 19.76560 80.71515 36837 ft 475 kts 139°
2026-04-23 16:11 19.72275 80.76863 36838 ft 475 kts 139°
2026-04-23 16:11 19.67986 80.82213 36840 ft 475 kts 139°
2026-04-23 16:12 19.63735 80.87510 36851 ft 474 kts 139°
2026-04-23 16:12 19.59453 80.92842 36851 ft 475 kts 139°
2026-04-23 16:13 19.55144 80.98126 36857 ft 474 kts 139°
2026-04-23 16:13 19.48667 81.06051 36866 ft 474 kts 139°
2026-04-23 16:14 19.44352 81.11326 36858 ft 473 kts 139°
2026-04-23 16:14 19.40038 81.16595 36853 ft 473 kts 139°
2026-04-23 16:15 19.35722 81.21862 36856 ft 473 kts 140°
2026-04-23 16:15 19.31436 81.27089 36854 ft 473 kts 140°
2026-04-23 16:16 19.27114 81.32354 36845 ft 473 kts 140°
2026-04-23 16:16 19.22800 81.37604 36849 ft 473 kts 139°
2026-04-23 16:17 19.18476 81.42863 36845 ft 473 kts 140°
2026-04-23 16:17 19.14154 81.48115 36858 ft 473 kts 140°
2026-04-23 16:18 19.09837 81.53355 36850 ft 472 kts 139°
2026-04-23 16:18 19.05523 81.58589 36849 ft 472 kts 139°
2026-04-23 16:19 19.01202 81.63824 36853 ft 472 kts 139°
2026-04-23 16:19 18.96915 81.69016 36850 ft 472 kts 139°
2026-04-23 16:20 18.92598 81.74239 36853 ft 472 kts 139°
2026-04-23 16:20 18.88277 81.79463 36857 ft 472 kts 139°
2026-04-23 16:21 18.83957 81.84679 36849 ft 472 kts 139°
2026-04-23 16:21 18.79640 81.89890 36852 ft 471 kts 140°
2026-04-23 16:22 18.75322 81.95096 36865 ft 471 kts 139°
2026-04-23 16:22 18.71011 82.00301 36858 ft 471 kts 139°
2026-04-23 16:23 18.67437 82.04632 36849 ft 470 kts 139°
2026-04-23 16:23 18.63140 82.09836 36853 ft 470 kts 139°
2026-04-23 16:24 18.58843 82.15035 36860 ft 470 kts 139°
2026-04-23 16:24 18.54566 82.20206 36867 ft 470 kts 139°
2026-04-23 16:25 18.50262 82.25405 36869 ft 470 kts 139°
2026-04-23 16:25 18.45956 82.30602 36874 ft 470 kts 139°
2026-04-23 16:26 18.41654 82.35789 36892 ft 470 kts 139°
2026-04-23 16:26 18.37354 82.40971 36911 ft 470 kts 139°
2026-04-23 16:27 18.33051 82.46152 36927 ft 470 kts 139°
2026-04-23 16:27 18.28746 82.51330 36911 ft 469 kts 139°
2026-04-23 16:28 18.24472 82.56468 36902 ft 469 kts 139°
2026-04-23 16:28 18.20164 82.61642 36916 ft 470 kts 139°
2026-04-23 16:29 18.15854 82.66813 36876 ft 469 kts 139°
2026-04-23 16:29 18.11546 82.71979 36866 ft 469 kts 139°
2026-04-23 16:30 18.07243 82.77133 36873 ft 469 kts 140°
2026-04-23 16:30 18.02943 82.82281 36872 ft 468 kts 139°
2026-04-23 16:31 17.98643 82.87424 36858 ft 469 kts 139°
2026-04-23 16:31 17.94340 82.92567 36840 ft 469 kts 139°
2026-04-23 16:32 17.90031 82.97713 36822 ft 468 kts 139°
2026-04-23 16:32 17.85734 83.02841 36821 ft 468 kts 139°
2026-04-23 16:33 17.81428 83.07975 36828 ft 468 kts 139°
2026-04-23 16:33 17.77126 83.13099 36824 ft 468 kts 139°
2026-04-23 16:34 17.72823 83.18223 36823 ft 467 kts 139°
2026-04-23 16:34 17.68524 83.23338 36826 ft 467 kts 139°
2026-04-23 16:35 17.63934 83.28051 36825 ft 461 kts 144°
2026-04-23 16:35 17.59258 83.32663 36821 ft 461 kts 144°
2026-04-23 16:36 17.54605 83.37292 36823 ft 461 kts 144°
2026-04-23 16:36 17.49981 83.41893 36815 ft 461 kts 144°
2026-04-23 16:37 17.45332 83.46516 36814 ft 461 kts 143°
2026-04-23 16:37 17.40681 83.51137 36814 ft 461 kts 143°
2026-04-23 16:38 17.36029 83.55755 36816 ft 461 kts 143°
2026-04-23 16:38 17.31380 83.60368 36818 ft 460 kts 143°
2026-04-23 16:39 17.26729 83.64980 36818 ft 460 kts 143°
2026-04-23 16:39 17.22075 83.69574 36822 ft 460 kts 144°
2026-04-23 16:40 17.17409 83.74147 36825 ft 460 kts 144°
2026-04-23 16:40 17.12738 83.78726 36821 ft 460 kts 143°
2026-04-23 16:41 17.08072 83.83295 36828 ft 460 kts 143°
2026-04-23 16:41 17.03396 83.87871 36827 ft 460 kts 143°
2026-04-23 16:42 16.98725 83.92440 36830 ft 460 kts 143°
2026-04-23 16:42 16.94051 83.97008 36831 ft 460 kts 143°
2026-04-23 16:43 16.89377 84.01573 36833 ft 460 kts 143°
2026-04-23 16:43 16.84705 84.06144 36831 ft 461 kts 143°
2026-04-23 16:44 16.80072 84.10763 36838 ft 461 kts 143°
2026-04-23 16:44 16.75431 84.15377 36838 ft 460 kts 143°
2026-04-23 16:45 16.70828 84.19950 36839 ft 460 kts 143°
2026-04-23 16:45 16.66191 84.24554 36837 ft 460 kts 143°
2026-04-23 16:46 16.61561 84.29147 36840 ft 459 kts 143°
2026-04-23 16:46 16.56931 84.33737 36840 ft 459 kts 143°
2026-04-23 16:47 16.52306 84.38318 36840 ft 459 kts 143°
2026-04-23 16:47 16.47685 84.42892 36843 ft 458 kts 143°
2026-04-23 16:48 16.43064 84.47464 36839 ft 458 kts 143°
2026-04-23 16:48 16.38446 84.52029 36844 ft 457 kts 143°
2026-04-23 16:49 16.33827 84.56592 36846 ft 457 kts 142°
2026-04-23 16:49 16.29210 84.61150 36844 ft 457 kts 142°
2026-04-23 16:50 16.24621 84.65678 36844 ft 457 kts 142°
2026-04-23 16:50 16.20007 84.70226 36846 ft 457 kts 142°
2026-04-23 16:51 16.15392 84.74774 36850 ft 456 kts 142°
2026-04-23 16:51 16.10774 84.79320 36850 ft 456 kts 142°
2026-04-23 16:52 16.06163 84.83857 36845 ft 456 kts 142°
2026-04-23 16:52 16.01585 84.88359 36856 ft 456 kts 142°
2026-04-23 16:53 15.96991 84.92910 36857 ft 456 kts 142°
2026-04-23 16:53 15.92413 84.97476 36855 ft 456 kts 142°
2026-04-23 16:54 15.87841 85.02030 36856 ft 456 kts 142°
2026-04-23 16:54 15.83265 85.06586 36853 ft 455 kts 141°
2026-04-23 16:55 15.78693 85.11135 36853 ft 455 kts 141°
2026-04-23 16:55 15.74116 85.15685 36855 ft 455 kts 141°
2026-04-23 16:56 15.69544 85.20227 36852 ft 455 kts 141°
2026-04-23 16:56 15.64971 85.24769 36854 ft 454 kts 141°
2026-04-23 16:57 15.60402 85.29302 36850 ft 454 kts 141°
2026-04-23 16:57 15.55835 85.33831 36852 ft 454 kts 141°
2026-04-23 16:58 15.51271 85.38354 36854 ft 453 kts 141°
2026-04-23 16:58 15.46710 85.42871 36856 ft 453 kts 141°
2026-04-23 16:59 15.42181 85.47353 36853 ft 453 kts 141°
2026-04-23 16:59 15.37626 85.51859 36853 ft 452 kts 141°
2026-04-23 17:00 15.33071 85.56361 36858 ft 452 kts 141°
2026-04-23 17:00 15.28520 85.60856 36854 ft 452 kts 141°
2026-04-23 17:01 15.23966 85.65353 36859 ft 452 kts 141°
2026-04-23 17:01 15.19413 85.69844 36859 ft 452 kts 141°
2026-04-23 17:02 15.14851 85.74342 36862 ft 453 kts 141°
2026-04-23 17:02 15.10313 85.78814 36859 ft 453 kts 141°
2026-04-23 17:03 15.05738 85.83319 36861 ft 454 kts 141°
2026-04-23 17:03 15.01162 85.87822 36861 ft 455 kts 141°
2026-04-23 17:04 14.96573 85.92335 36862 ft 455 kts 141°
2026-04-23 17:04 14.91973 85.96856 36861 ft 456 kts 141°
2026-04-23 17:05 14.87374 86.01374 36859 ft 457 kts 141°
2026-04-23 17:05 14.82767 86.05897 36862 ft 457 kts 141°
2026-04-23 17:06 14.78156 86.10420 36863 ft 457 kts 141°
2026-04-23 17:06 14.73535 86.14951 36861 ft 457 kts 141°
2026-04-23 17:07 14.68916 86.19477 36845 ft 459 kts 141°
2026-04-23 17:07 14.65039 86.23273 36861 ft 465 kts 141°
2026-04-23 17:08 14.60326 86.27887 36866 ft 467 kts 141°
2026-04-23 17:08 14.54845 86.33248 36867 ft 467 kts 141°
2026-04-23 17:09 14.50135 86.37852 36864 ft 467 kts 141°
2026-04-23 17:09 14.45409 86.42469 36864 ft 467 kts 141°
2026-04-23 17:10 14.41489 86.46296 36864 ft 467 kts 141°
2026-04-23 17:10 14.36774 86.50897 36865 ft 467 kts 141°
2026-04-23 17:11 14.32057 86.55495 36863 ft 466 kts 141°
2026-04-23 17:11 14.27338 86.60095 36863 ft 466 kts 141°
2026-04-23 17:12 14.22624 86.64687 36864 ft 466 kts 141°
2026-04-23 17:12 14.17910 86.69275 36865 ft 466 kts 141°
2026-04-23 17:13 14.13192 86.73865 36863 ft 466 kts 141°
2026-04-23 17:13 14.08473 86.78452 36861 ft 466 kts 141°
2026-04-23 17:14 14.03788 86.83004 36861 ft 466 kts 141°
2026-04-23 17:14 13.99074 86.87582 36862 ft 466 kts 141°
2026-04-23 17:15 13.94359 86.92158 36864 ft 466 kts 141°
2026-04-23 17:15 13.89643 86.96732 36863 ft 466 kts 141°
2026-04-23 17:16 13.84923 87.01308 36863 ft 466 kts 140°
2026-04-23 17:16 13.80204 87.05879 36860 ft 466 kts 140°
2026-04-23 17:17 13.75485 87.10448 36860 ft 466 kts 140°
2026-04-23 17:17 13.70767 87.15013 36862 ft 466 kts 140°
2026-04-23 17:18 13.63714 87.21833 36862 ft 466 kts 140°
2026-04-23 17:19 13.58993 87.26395 36861 ft 465 kts 140°
2026-04-23 17:19 13.54271 87.30956 36863 ft 465 kts 140°
2026-04-23 17:20 13.49553 87.35508 36862 ft 465 kts 140°
2026-04-23 17:21 13.40116 87.44609 36863 ft 465 kts 140°
2026-04-23 17:21 13.33037 87.51429 36866 ft 465 kts 140°
2026-04-23 17:22 13.25985 87.58217 36864 ft 465 kts 140°
2026-04-23 17:23 13.18901 87.65030 36866 ft 465 kts 140°
2026-04-23 17:24 13.11819 87.71836 36866 ft 465 kts 140°
2026-04-23 17:24 13.04732 87.78640 36868 ft 465 kts 140°
2026-04-23 17:25 12.97647 87.85437 36866 ft 465 kts 139°
2026-04-23 17:26 12.88196 87.94496 36867 ft 465 kts 139°
2026-04-23 17:27 12.81110 88.01281 36866 ft 465 kts 139°
2026-04-23 17:27 12.76385 88.05802 36865 ft 465 kts 139°
2026-04-23 17:28 12.71694 88.10289 36863 ft 464 kts 139°
2026-04-23 17:28 12.66970 88.14804 36865 ft 464 kts 139°
2026-04-23 17:29 12.62245 88.19318 36863 ft 464 kts 139°
2026-04-23 17:30 12.55157 88.26086 36865 ft 464 kts 139°
2026-04-23 17:30 12.48070 88.32846 36865 ft 464 kts 139°
2026-04-23 17:31 12.43350 88.37347 36864 ft 464 kts 139°
2026-04-23 17:31 12.38625 88.41850 36865 ft 464 kts 139°
2026-04-23 17:32 12.33907 88.46344 36868 ft 464 kts 139°
2026-04-23 17:32 12.29186 88.50838 36865 ft 463 kts 139°
2026-04-23 17:33 12.24463 88.55332 36865 ft 463 kts 139°
2026-04-23 17:33 12.19742 88.59822 36865 ft 463 kts 139°
2026-04-23 17:34 12.15025 88.64306 36864 ft 463 kts 139°
2026-04-23 17:35 12.08002 88.71038 36865 ft 463 kts 138°
2026-04-23 17:35 12.00984 88.77838 36864 ft 463 kts 138°
2026-04-23 17:36 11.96304 88.82368 36862 ft 463 kts 138°
2026-04-23 17:36 11.91626 88.86894 36859 ft 463 kts 138°
2026-04-23 17:37 11.86945 88.91421 36859 ft 463 kts 138°
2026-04-23 17:38 11.79925 88.98205 36861 ft 463 kts 138°
2026-04-23 17:38 11.75247 89.02723 36863 ft 463 kts 138°
2026-04-23 17:39 11.70564 89.07244 36863 ft 463 kts 138°
2026-04-23 17:39 11.65890 89.11755 36861 ft 463 kts 138°
2026-04-23 17:40 11.61240 89.16240 36865 ft 463 kts 138°
2026-04-23 17:40 11.56561 89.20749 36866 ft 463 kts 138°
2026-04-23 17:41 11.51885 89.25255 36862 ft 463 kts 138°
2026-04-23 17:41 11.44861 89.32018 36862 ft 463 kts 138°
2026-04-23 17:42 11.37844 89.38770 36862 ft 463 kts 138°
2026-04-23 17:43 11.33162 89.43273 36862 ft 462 kts 138°
2026-04-23 17:43 11.28481 89.47773 36860 ft 462 kts 138°
2026-04-23 17:44 11.23800 89.52270 36863 ft 463 kts 138°
2026-04-23 17:44 11.16809 89.58982 36861 ft 462 kts 138°
2026-04-23 17:45 11.09790 89.65718 36863 ft 462 kts 138°
2026-04-23 17:46 11.02773 89.72446 36860 ft 462 kts 138°
2026-04-23 17:46 10.98089 89.76935 36863 ft 462 kts 138°
2026-04-23 17:47 10.93405 89.81422 36863 ft 462 kts 138°
2026-04-23 17:48 10.86395 89.88133 36860 ft 461 kts 137°
2026-04-23 17:48 10.81717 89.92609 36860 ft 461 kts 137°
2026-04-23 17:49 10.77043 89.97079 36858 ft 461 kts 137°
2026-04-23 17:49 10.73239 90.02208 36868 ft 463 kts 116°
2026-04-23 17:50 10.70385 90.08093 36860 ft 464 kts 117°
2026-04-23 17:50 10.66203 90.16960 36859 ft 464 kts 116°
2026-04-23 17:51 10.63426 90.22879 36860 ft 463 kts 116°
2026-04-23 17:52 10.59265 90.31745 36860 ft 463 kts 116°
2026-04-23 17:52 10.55103 90.40605 36856 ft 463 kts 116°
2026-04-23 17:53 10.50940 90.49459 36856 ft 463 kts 116°
2026-04-23 17:54 10.48166 90.55356 36854 ft 463 kts 116°
2026-04-23 17:54 10.44017 90.64166 36854 ft 463 kts 116°
2026-04-23 17:55 10.39847 90.73014 36854 ft 463 kts 116°
2026-04-23 17:56 10.37069 90.78907 36854 ft 463 kts 116°
2026-04-23 17:56 10.33368 90.86749 36852 ft 463 kts 116°
2026-04-23 17:57 10.30116 90.93635 36851 ft 463 kts 116°
2026-04-23 17:58 10.26411 91.01477 36851 ft 462 kts 116°
2026-04-23 17:58 10.23627 91.07364 36851 ft 462 kts 116°
2026-04-23 17:59 10.20848 91.13239 36849 ft 462 kts 116°
2026-04-23 17:59 10.18066 91.19115 36851 ft 462 kts 116°
2026-04-23 18:00 10.15284 91.24990 36849 ft 461 kts 116°
2026-04-23 18:00 10.12500 91.30863 36848 ft 461 kts 116°
2026-04-23 18:01 10.09721 91.36726 36847 ft 461 kts 116°
2026-04-23 18:01 10.06938 91.42590 36846 ft 461 kts 116°
2026-04-23 18:02 10.04156 91.48451 36849 ft 461 kts 116°
2026-04-23 18:02 10.01390 91.54276 36845 ft 461 kts 116°
2026-04-23 18:03 9.98605 91.60138 36844 ft 461 kts 116°
2026-04-23 18:03 9.95821 91.65992 36844 ft 461 kts 116°
2026-04-23 18:04 9.93039 91.71841 36844 ft 460 kts 116°
2026-04-23 18:04 9.90254 91.77693 36843 ft 460 kts 116°
2026-04-23 18:05 9.87468 91.83541 36844 ft 460 kts 116°
2026-04-23 18:05 9.84682 91.89390 36842 ft 460 kts 116°
2026-04-23 18:06 9.81914 91.95197 36842 ft 460 kts 116°
2026-04-23 18:06 9.79125 92.01044 36842 ft 460 kts 116°
2026-04-23 18:07 9.76340 92.06879 36843 ft 460 kts 116°
2026-04-23 18:07 9.73550 92.12722 36841 ft 460 kts 116°
2026-04-23 18:08 9.71232 92.17575 36843 ft 460 kts 116°
2026-04-23 18:08 9.67973 92.24394 36840 ft 460 kts 116°
2026-04-23 18:09 9.65183 92.30228 36842 ft 460 kts 116°
2026-04-23 18:09 9.62411 92.36022 36841 ft 460 kts 116°
2026-04-23 18:10 9.59602 92.41890 36840 ft 460 kts 116°
2026-04-23 18:10 9.56812 92.47716 36841 ft 460 kts 116°
2026-04-23 18:11 9.54035 92.53511 36841 ft 460 kts 116°
2026-04-23 18:11 9.51241 92.59338 36841 ft 460 kts 116°
2026-04-23 18:12 9.48448 92.65161 36839 ft 460 kts 116°
2026-04-23 18:12 9.45651 92.70990 36836 ft 460 kts 116°
2026-04-23 18:13 9.42854 92.76813 36839 ft 460 kts 116°
2026-04-23 18:13 9.40054 92.82641 36839 ft 460 kts 115°
2026-04-23 18:14 9.37254 92.88468 36837 ft 460 kts 116°
2026-04-23 18:14 9.34453 92.94292 36837 ft 460 kts 115°
2026-04-23 18:15 9.31651 93.00116 36837 ft 460 kts 115°
2026-04-23 18:15 9.28867 93.05900 36838 ft 460 kts 115°
2026-04-23 18:16 9.26060 93.11728 36839 ft 460 kts 115°
2026-04-23 18:16 9.23257 93.17545 36835 ft 460 kts 115°
2026-04-23 18:17 9.19045 93.26282 36839 ft 460 kts 115°
2026-04-23 18:17 9.16238 93.32100 36839 ft 460 kts 115°
2026-04-23 18:18 9.13432 93.37913 36837 ft 460 kts 115°
2026-04-23 18:18 9.10624 93.43727 36837 ft 460 kts 115°
2026-04-23 18:19 9.07835 93.49501 36837 ft 460 kts 115°
2026-04-23 18:19 9.05023 93.55318 36839 ft 460 kts 115°
2026-04-23 18:20 9.02214 93.61126 36839 ft 459 kts 115°
2026-04-23 18:20 8.99405 93.66932 36836 ft 459 kts 115°
2026-04-23 18:21 8.96599 93.72729 36838 ft 459 kts 115°
2026-04-23 18:21 8.93789 93.78534 36836 ft 459 kts 115°
2026-04-23 18:22 8.90980 93.84332 36834 ft 459 kts 115°
2026-04-23 18:22 8.88172 93.90124 36832 ft 459 kts 115°
2026-04-23 18:23 8.83972 93.98777 36832 ft 459 kts 116°
2026-04-23 18:24 8.78980 94.07034 36835 ft 459 kts 121°
2026-04-23 18:25 8.73898 94.15239 36832 ft 459 kts 121°
2026-04-23 18:25 8.70508 94.20707 36833 ft 459 kts 121°
2026-04-23 18:26 8.67120 94.26170 36833 ft 459 kts 121°
2026-04-23 18:26 8.63726 94.31638 36829 ft 459 kts 121°
2026-04-23 18:27 8.60337 94.37097 36830 ft 458 kts 121°
2026-04-23 18:27 8.57080 94.42589 36829 ft 457 kts 115°
2026-04-23 18:28 8.54162 94.48303 36830 ft 458 kts 117°
2026-04-23 18:28 8.51194 94.53988 36829 ft 458 kts 117°
2026-04-23 18:29 8.48217 94.59671 36831 ft 457 kts 117°
2026-04-23 18:29 8.45240 94.65350 36826 ft 457 kts 117°
2026-04-23 18:30 8.42262 94.71028 36828 ft 457 kts 117°
2026-04-23 18:30 8.39285 94.76703 36830 ft 457 kts 117°
2026-04-23 18:31 8.36307 94.82374 36826 ft 457 kts 117°
2026-04-23 18:31 8.33349 94.88009 36827 ft 457 kts 117°
2026-04-23 18:32 8.30352 94.93713 36829 ft 456 kts 117°
2026-04-23 18:32 8.27397 94.99336 36827 ft 456 kts 117°
2026-04-23 18:33 8.24424 95.04990 36826 ft 456 kts 117°
2026-04-23 18:33 8.21450 95.10645 36827 ft 456 kts 117°
2026-04-23 18:34 8.18474 95.16300 36828 ft 456 kts 117°
2026-04-23 18:34 8.15500 95.21951 36829 ft 456 kts 117°
2026-04-23 18:35 8.12520 95.27609 36826 ft 456 kts 117°
2026-04-23 18:35 8.09545 95.33255 36828 ft 456 kts 117°
2026-04-23 18:36 8.06568 95.38905 36826 ft 456 kts 117°
2026-04-23 18:36 8.03590 95.44552 36822 ft 456 kts 117°
2026-04-23 18:37 8.00613 95.50194 36823 ft 456 kts 117°
2026-04-23 18:37 7.97632 95.55836 36826 ft 456 kts 117°
2026-04-23 18:38 7.94670 95.61442 36823 ft 456 kts 117°
2026-04-23 18:38 7.91689 95.67081 36824 ft 455 kts 117°
2026-04-23 18:39 7.88706 95.72722 36825 ft 455 kts 117°
2026-04-23 18:39 7.85724 95.78357 36823 ft 455 kts 117°
2026-04-23 18:40 7.82745 95.83987 36821 ft 455 kts 117°
2026-04-23 18:40 7.79762 95.89619 36820 ft 455 kts 117°
2026-04-23 18:41 7.76799 95.95214 36822 ft 455 kts 117°
2026-04-23 18:41 7.73818 96.00839 36823 ft 455 kts 117°
2026-04-23 18:42 7.70836 96.06465 36823 ft 455 kts 117°
2026-04-23 18:42 7.67853 96.12090 36826 ft 455 kts 117°
2026-04-23 18:43 7.64868 96.17716 36824 ft 455 kts 117°
2026-04-23 18:43 7.61883 96.23339 36821 ft 455 kts 117°
2026-04-23 18:44 7.58895 96.28967 36821 ft 455 kts 117°
2026-04-23 18:44 7.55908 96.34592 36819 ft 455 kts 117°
2026-04-23 18:45 7.52920 96.40216 36820 ft 455 kts 117°
2026-04-23 18:45 7.49948 96.45807 36823 ft 455 kts 117°
2026-04-23 18:46 7.46954 96.51436 36823 ft 456 kts 117°
2026-04-23 18:46 7.43962 96.57062 36821 ft 456 kts 117°
2026-04-23 18:47 7.40964 96.62695 36817 ft 456 kts 118°
2026-04-23 18:47 7.38470 96.67382 36817 ft 456 kts 118°
2026-04-23 18:48 7.35468 96.73019 36819 ft 457 kts 118°
2026-04-23 18:48 7.32465 96.78658 36816 ft 457 kts 118°
2026-04-23 18:49 7.29456 96.84305 36818 ft 457 kts 118°
2026-04-23 18:49 7.27050 96.90190 36830 ft 456 kts 103°
2026-04-23 18:50 7.25749 96.95347 36822 ft 457 kts 104°
2026-04-23 18:50 7.23950 97.02622 36817 ft 458 kts 104°
2026-04-23 18:51 7.22425 97.08848 36816 ft 458 kts 104°
2026-04-23 18:51 7.20908 97.15042 36819 ft 458 kts 104°
2026-04-23 18:52 7.19379 97.21278 36818 ft 458 kts 104°
2026-04-23 18:52 7.17850 97.27510 36819 ft 459 kts 104°
2026-04-23 18:53 7.16319 97.33748 36816 ft 459 kts 104°
2026-04-23 18:53 7.14785 97.39995 36818 ft 459 kts 104°
2026-04-23 18:54 7.13251 97.46238 36819 ft 460 kts 104°
2026-04-23 18:54 7.11715 97.52483 36818 ft 460 kts 104°
2026-04-23 18:55 7.10176 97.58738 36817 ft 460 kts 104°
2026-04-23 18:55 7.08637 97.64988 36820 ft 460 kts 104°
2026-04-23 18:56 7.07357 97.70185 36818 ft 460 kts 104°
2026-04-23 18:56 7.05565 97.77454 36819 ft 460 kts 104°
2026-04-23 18:57 7.04020 97.83718 36815 ft 460 kts 104°
2026-04-23 18:57 7.02476 97.89977 36819 ft 461 kts 104°
2026-04-23 18:58 7.00929 97.96240 36815 ft 461 kts 104°
2026-04-23 18:58 6.99091 98.02407 36820 ft 460 kts 110°
2026-04-23 18:59 6.96888 98.08458 36817 ft 461 kts 110°
2026-04-23 18:59 6.94677 98.14471 36816 ft 461 kts 110°
2026-04-23 19:00 6.92450 98.20523 36812 ft 461 kts 110°
2026-04-23 19:00 6.90221 98.26575 36813 ft 461 kts 110°
2026-04-23 19:01 6.87991 98.32629 36814 ft 461 kts 110°
2026-04-23 19:01 6.85758 98.38686 36818 ft 462 kts 110°
2026-04-23 19:02 6.83525 98.44742 36814 ft 462 kts 110°
2026-04-23 19:02 6.81288 98.50807 36814 ft 462 kts 110°
2026-04-23 19:03 6.79052 98.56865 36816 ft 462 kts 110°
2026-04-23 19:03 6.76812 98.62932 36818 ft 463 kts 110°
2026-04-23 19:04 6.74567 98.69010 36815 ft 463 kts 110°
2026-04-23 19:04 6.72324 98.75081 36817 ft 463 kts 110°
2026-04-23 19:05 6.70075 98.81163 36815 ft 463 kts 110°
2026-04-23 19:05 6.67827 98.87242 36816 ft 464 kts 110°
2026-04-23 19:06 6.65578 98.93322 36816 ft 464 kts 110°
2026-04-23 19:06 6.63341 98.99364 36815 ft 464 kts 110°
2026-04-23 19:07 6.61089 99.05445 36815 ft 464 kts 110°
2026-04-23 19:07 6.58836 99.11526 36815 ft 464 kts 110°
2026-04-23 19:08 6.56581 99.17611 36816 ft 464 kts 110°
2026-04-23 19:08 6.54328 99.23688 36814 ft 464 kts 110°
2026-04-23 19:09 6.52073 99.29768 36816 ft 464 kts 110°
2026-04-23 19:09 6.49818 99.35845 36814 ft 464 kts 110°
2026-04-23 19:10 6.47562 99.41921 36819 ft 464 kts 110°
2026-04-23 19:10 6.45305 99.47998 36823 ft 464 kts 111°
2026-04-23 19:11 6.43061 99.54038 36825 ft 464 kts 111°
2026-04-23 19:11 6.40804 99.60111 36826 ft 464 kts 111°
2026-04-23 19:12 6.38912 99.65199 36830 ft 464 kts 111°
2026-04-23 19:12 6.36270 99.72254 36828 ft 463 kts 114°
2026-04-23 19:12 6.34643 99.75024 36823 ft 460 kts 130°
2026-04-23 19:13 6.32481 99.77398 36828 ft 462 kts 133°
2026-04-23 19:13 6.28044 99.82080 36827 ft 462 kts 134°
2026-04-23 19:14 6.23553 99.86704 36826 ft 462 kts 135°
2026-04-23 19:14 6.19055 99.91307 36810 ft 462 kts 135°
2026-04-23 19:15 6.14551 99.95914 36812 ft 461 kts 135°
2026-04-23 19:15 6.10054 100.00512 36816 ft 461 kts 135°
2026-04-23 19:16 6.05558 100.05108 36816 ft 460 kts 135°
2026-04-23 19:16 6.01100 100.09663 36815 ft 460 kts 135°
2026-04-23 19:17 5.94377 100.16531 36813 ft 459 kts 135°
2026-04-23 19:17 5.89899 100.21105 36815 ft 459 kts 135°
2026-04-23 19:18 5.85422 100.25676 36814 ft 459 kts 135°
2026-04-23 19:18 5.80942 100.30249 36815 ft 458 kts 135°
2026-04-23 19:19 5.74233 100.37096 36811 ft 458 kts 135°
2026-04-23 19:20 5.67550 100.43914 36806 ft 458 kts 135°
2026-04-23 19:20 5.63077 100.48476 36807 ft 458 kts 135°
2026-04-23 19:21 5.56376 100.55307 36807 ft 457 kts 135°
2026-04-23 19:22 5.51915 100.59854 36812 ft 457 kts 135°
2026-04-23 19:22 5.45212 100.66684 36817 ft 457 kts 135°
2026-04-23 19:23 5.40753 100.71227 36827 ft 457 kts 135°
2026-04-23 19:23 5.38425 100.73323 36818 ft 455 kts 146°
2026-04-23 19:24 5.32569 100.75523 36836 ft 454 kts 169°
2026-04-23 19:24 5.23218 100.77165 36828 ft 455 kts 171°
2026-04-23 19:25 5.10726 100.79153 36827 ft 454 kts 171°
2026-04-23 19:26 5.01361 100.80633 36825 ft 454 kts 171°
2026-04-23 19:27 4.85812 100.83090 36828 ft 453 kts 171°
2026-04-23 19:28 4.73351 100.85058 36826 ft 453 kts 171°
2026-04-23 19:29 4.64004 100.86534 36830 ft 453 kts 171°
2026-04-23 19:30 4.54669 100.88008 36825 ft 452 kts 171°
2026-04-23 19:31 4.45416 100.89767 36815 ft 450 kts 156°
2026-04-23 19:31 4.41213 100.91742 36822 ft 451 kts 155°
2026-04-23 21:00 4.36229 100.94119 36806 ft 452 kts 154°
2026-04-23 21:01 4.30651 100.96827 36802 ft 453 kts 154°
2026-04-23 21:01 4.24985 100.99585 36641 ft 453 kts 154°
2026-04-23 21:02 4.22157 101.00963 36114 ft 451 kts 154°
2026-04-23 21:02 4.19328 101.02340 35465 ft 451 kts 154°
2026-04-23 21:02 4.16504 101.03716 34756 ft 452 kts 154°
2026-04-23 21:02 4.13666 101.05097 34058 ft 454 kts 154°
2026-04-23 21:03 4.10826 101.06480 33429 ft 453 kts 154°
2026-04-23 21:03 4.07998 101.07856 32826 ft 450 kts 154°
2026-04-23 21:03 4.05191 101.09222 32266 ft 448 kts 154°
2026-04-23 21:03 4.02399 101.10581 31712 ft 445 kts 154°
2026-04-23 21:04 3.99624 101.11932 31147 ft 442 kts 154°
2026-04-23 21:04 3.96859 101.13277 30594 ft 440 kts 154°
2026-04-23 21:04 3.94107 101.14617 30033 ft 438 kts 154°
2026-04-23 21:04 3.91398 101.15935 29411 ft 437 kts 154°
2026-04-23 21:05 3.88673 101.17260 28813 ft 434 kts 154°
2026-04-23 21:05 3.85965 101.18578 28271 ft 430 kts 154°
2026-04-23 21:05 3.83290 101.19879 27740 ft 426 kts 154°
2026-04-23 21:05 3.80630 101.21173 27203 ft 423 kts 154°
2026-04-23 21:06 3.77957 101.22372 26655 ft 420 kts 162°
2026-04-23 21:06 3.75100 101.22863 26234 ft 415 kts 177°
2026-04-23 21:06 3.72240 101.22959 25911 ft 407 kts 177°
2026-04-23 21:06 3.69400 101.23044 25510 ft 410 kts 178°
2026-04-23 21:07 3.66541 101.23110 25104 ft 411 kts 178°
2026-04-23 21:07 3.63683 101.23162 24710 ft 410 kts 178°
2026-04-23 21:07 3.60842 101.23208 24314 ft 407 kts 178°
2026-04-23 21:07 3.58020 101.23251 23922 ft 405 kts 178°
2026-04-23 21:08 3.55211 101.23293 23517 ft 402 kts 178°
2026-04-23 21:08 3.52423 101.23335 23084 ft 399 kts 178°
2026-04-23 21:08 3.49654 101.23376 22661 ft 397 kts 178°
2026-04-23 21:08 3.46905 101.23417 22269 ft 394 kts 178°
2026-04-23 21:09 3.44169 101.23458 21887 ft 392 kts 178°
2026-04-23 21:09 3.41448 101.23498 21507 ft 390 kts 178°
2026-04-23 21:09 3.38744 101.23539 21129 ft 387 kts 178°
2026-04-23 21:09 3.36055 101.23579 20757 ft 385 kts 178°
2026-04-23 21:10 3.33419 101.23618 20386 ft 383 kts 178°
2026-04-23 21:10 3.30763 101.23657 20013 ft 380 kts 178°
2026-04-23 21:10 3.28123 101.23697 19648 ft 378 kts 178°
2026-04-23 21:10 3.25505 101.23736 19279 ft 376 kts 178°
2026-04-23 21:11 3.22890 101.23774 18917 ft 374 kts 178°
2026-04-23 21:11 3.20299 101.23813 18551 ft 372 kts 178°
2026-04-23 21:11 3.17718 101.23852 18190 ft 370 kts 178°
2026-04-23 21:11 3.15151 101.23935 17818 ft 366 kts 171°
2026-04-23 21:12 3.12733 101.24645 17668 ft 363 kts 153°
2026-04-23 21:12 3.10657 101.26060 17401 ft 361 kts 138°
2026-04-23 21:12 3.08764 101.27704 16979 ft 360 kts 140°
2026-04-23 21:12 3.06838 101.29311 16516 ft 359 kts 140°
2026-04-23 21:13 3.04914 101.30897 16047 ft 358 kts 140°
2026-04-23 21:13 3.02986 101.32476 15575 ft 356 kts 141°
2026-04-23 21:13 3.01074 101.34038 15104 ft 354 kts 141°
2026-04-23 21:13 3.00778 101.34279 15030 ft 354 kts 141°
2026-04-23 21:14 2.98864 101.35841 14554 ft 351 kts 141°
2026-04-23 21:14 2.96975 101.37381 14088 ft 349 kts 141°
2026-04-23 21:14 2.95097 101.38912 13624 ft 348 kts 141°
2026-04-23 21:14 2.93859 101.39921 13267 ft 347 kts 141°
2026-04-23 21:15 2.91994 101.41441 12761 ft 344 kts 141°
2026-04-23 21:15 2.89553 101.43431 12139 ft 340 kts 141°
2026-04-23 21:15 2.88354 101.44410 11921 ft 330 kts 141°
2026-04-23 21:15 2.86626 101.45822 11614 ft 313 kts 141°
2026-04-23 21:16 2.84413 101.47627 10761 ft 309 kts 141°
2026-04-23 21:16 2.82756 101.48977 10104 ft 306 kts 141°
2026-04-23 21:16 2.81640 101.49886 9670 ft 305 kts 141°
2026-04-23 21:16 2.80001 101.51221 8957 ft 303 kts 141°
2026-04-23 21:17 2.78368 101.52551 8257 ft 301 kts 141°
2026-04-23 21:17 2.76767 101.53853 7583 ft 299 kts 141°
2026-04-23 21:17 2.75159 101.55163 6912 ft 298 kts 141°
2026-04-23 21:17 2.73553 101.56471 6240 ft 297 kts 141°
2026-04-23 21:18 2.71958 101.57769 5551 ft 295 kts 141°
2026-04-23 21:18 2.70374 101.59058 4856 ft 294 kts 140°
2026-04-23 21:18 2.69005 101.60173 4267 ft 292 kts 140°
2026-04-23 21:18 2.67438 101.61447 3682 ft 286 kts 140°
2026-04-23 21:19 2.65965 101.62647 3649 ft 260 kts 140°
2026-04-23 21:19 2.64625 101.63737 3641 ft 237 kts 140°
2026-04-23 21:19 2.63399 101.64729 3650 ft 221 kts 142°
2026-04-23 21:19 2.62118 101.65595 3635 ft 218 kts 146°
2026-04-23 21:20 2.60922 101.66379 3564 ft 195 kts 145°
2026-04-23 21:20 2.59855 101.67117 3350 ft 183 kts 139°
2026-04-23 21:20 2.59050 101.68075 3083 ft 179 kts 112°
2026-04-23 21:20 2.58973 101.69300 2720 ft 182 kts 73°
2026-04-23 21:21 2.59639 101.70390 2376 ft 185 kts 51°
2026-04-23 21:21 2.60421 101.71350 2192 ft 172 kts 57°
2026-04-23 21:21 2.61071 101.72320 1969 ft 161 kts 59°
2026-04-23 21:21 2.61656 101.73204 1797 ft 144 kts 58°
2026-04-23 21:22 2.62230 101.74025 1698 ft 145 kts 57°
2026-04-23 21:22 2.62803 101.74849 1624 ft 144 kts 56°
2026-04-23 21:22 2.63448 101.75610 1481 ft 145 kts 34°
2026-04-23 21:22 2.64440 101.75751 1422 ft 152 kts 351°
2026-04-23 21:23 2.65466 101.75476 1224 ft 152 kts 346°
2026-04-23 21:23 2.66411 101.74987 1023 ft 149 kts 327°
2026-04-23 21:23 2.67297 101.74450 1032 ft 152 kts 333°
2026-04-23 21:23 2.68214 101.73922 901 ft 152 kts 327°
2026-04-23 21:24 2.69056 101.73300 718 ft 149 kts 327°
2026-04-23 21:24 2.69943 101.72746 518 ft 150 kts 328°
2026-04-23 21:24 2.70804 101.72167 287 ft 149 kts 326°
2026-04-23 21:24 2.71663 101.71583 66 ft 147 kts 325°
2026-04-23 21:25 2.72420 101.71068 55 ft 112 kts 327°
2026-04-23 21:25 2.72966 101.70706 55 ft 77 kts 327°
2026-04-23 21:25 2.73315 101.70494 61 ft 39 kts 341°
2026-04-23 21:25 2.73532 101.70459 60 ft 32 kts 355°
2026-04-23 21:26 2.73690 101.70502 60 ft 22 kts 55°
2026-04-23 21:26 2.73774 101.70625 63 ft 20 kts 54°
2026-04-23 21:26 2.73852 101.70734 73 ft 21 kts 55°
2026-04-23 21:26 2.73948 101.70872 69 ft 27 kts 56°
2026-04-23 21:27 2.74064 101.71050 70 ft 34 kts 55°
2026-04-23 21:27 2.74183 101.71222 75 ft 27 kts 55°
2026-04-23 21:27 2.74279 101.71364 72 ft 19 kts 56°
2026-04-23 21:27 2.74355 101.71471 74 ft 17 kts 57°
2026-04-23 21:28 2.74430 101.71589 70 ft 23 kts 56°
2026-04-23 21:28 2.74517 101.71702 75 ft 11 kts 25°
2026-04-23 21:28 2.74574 101.71682 70 ft 13 kts 327°
2026-04-23 21:28 2.74667 101.71616 73 ft 7 kts 301°
2026-04-23 21:29 2.74648 101.71571 75 ft 1 kts 232°
2026-04-23 21:29 2.74638 101.71558 75 ft 3 kts 233°
2026-04-23 21:29 2.74633 101.71550 75 ft 1 kts 235°